GW2810 Weather Reports


time (UTC)temp
F
wind
direction
speed
knots
gust
knots
rain 1hr
in
rain 24hr
in
rain mn
in
humidity
%
barometer
mb
20260906164932 85 99 2.6 3.5 0.00 0.00 0.00 79 1016.8
20260906164430 85 59 2.6 3.5 0.00 0.00 0.00 79 1016.8
20260906163927 86 143 2.6 7.8 0.00 0.00 0.00 78 1016.8
20260906163423 85 72 0.9 5.2 0.00 0.00 0.00 79 1016.6
20260906162920 85 110 5.2 6.1 0.00 0.00 0.00 77 1016.8
20260906162414 85 48 3.5 7.0 0.00 0.00 0.00 78 1016.8
20260906161909 84 97 4.3 5.2 0.00 0.00 0.00 79 1016.9
20260906161408 84 112 3.5 6.1 0.00 0.00 0.00 79 1016.9
20260906160907 85 113 3.5 5.2 0.00 0.00 0.00 78 1017.0
20260906160401 85 104 3.5 6.1 0.00 0.00 0.00 78 1016.9
20260906155859 85 111 2.6 7.0 0.00 0.00 0.00 78 1016.7
20260906155353 84 145 3.5 5.2 0.00 0.00 0.00 78 1016.8
20260906154849 83 83 1.7 3.5 0.00 0.00 0.00 81 1016.7
20260906154343 84 93 1.7 5.2 0.00 0.00 0.00 80 1016.9
20260906153842 84 97 3.5 6.1 0.00 0.00 0.00 79 1016.9
20260906153336 83 150 3.5 7.0 0.00 0.00 0.00 80 1016.8
20260906152831 83 132 3.5 7.0 0.00 0.00 0.00 80 1016.8
20260906152326 83 76 0.0 2.6 0.00 0.00 0.00 80 1017.0
20260906151825 83 120 2.6 5.2 0.00 0.00 0.00 80 1017.1
20260906151321 83 87 0.9 3.5 0.00 0.00 0.00 81 1017.0
20260906150817 82 103 0.0 2.6 0.00 0.00 0.00 81 1017.2
20260906150312 81 87 3.5 6.1 0.00 0.00 0.00 81 1017.1
20260906145811 81 76 2.6 6.1 0.00 0.00 0.00 82 1017.1
20260906145310 81 104 3.5 5.2 0.00 0.00 0.00 83 1017.1
20260906144805 80 107 1.7 5.2 0.00 0.00 0.00 84 1017.2
20260906144300 81 94 2.6 7.0 0.00 0.00 0.00 82 1017.2
20260906143759 80 140 6.1 7.8 0.00 0.00 0.00 83 1017.1
20260906143257 80 104 3.5 7.8 0.00 0.00 0.00 85 1016.9
20260906142756 79 140 2.6 6.1 0.00 0.00 0.00 86 1016.8
20260906142252 79 88 2.6 7.0 0.00 0.00 0.00 87 1016.8
20260906141750 79 99 3.5 3.5 0.00 0.00 0.00 86 1017.0
20260906141245 79 98 2.6 5.2 0.00 0.00 0.00 87 1017.0
20260906140744 79 102 1.7 3.5 0.00 0.00 0.00 87 1017.0
20260906140239 78 94 0.9 3.5 0.00 0.00 0.00 87 1016.9
20260906135736 79 92 1.7 3.5 0.00 0.00 0.00 88 1016.9
20260906135232 78 91 2.6 5.2 0.00 0.00 0.00 89 1016.9
20260906134728 77 105 1.7 5.2 0.00 0.00 0.00 89 1017.0
20260906134223 77 91 2.6 5.2 0.00 0.00 0.00 90 1017.0
20260906133719 77 128 4.3 6.1 0.00 0.00 0.00 90 1016.9
20260906133214 77 101 5.2 7.0 0.00 0.00 0.00 91 1016.8
20260906132709 77 100 1.7 6.1 0.00 0.00 0.00 91 1016.9
20260906132205 77 92 1.7 2.6 0.00 0.00 0.00 91 1016.9
20260906131700 77 79 1.7 3.5 0.00 0.00 0.00 92 1016.7
20260906131155 76 141 3.5 6.1 0.00 0.00 0.00 93 1016.7
20260906130650 76 97 1.7 7.0 0.00 0.00 0.00 94 1016.8
20260906130145 75 87 1.7 6.1 0.00 0.00 0.00 94 1016.7
20260906125643 75 85 2.6 5.2 0.00 0.00 0.00 94 1016.5
20260906125142 75 96 3.5 5.2 0.00 0.00 0.00 95 1016.6
20260906124638 75 96 1.7 6.1 0.00 0.00 0.00 95 1016.6
20260906124133 75 86 0.9 2.6 0.00 0.00 0.00 95 1016.5
20260906123632 75 94 4.3 5.2 0.00 0.00 0.00 95 1016.4
20260906123127 75 76 1.7 5.2 0.00 0.00 0.00 95 1016.3
20260906122626 75 108 0.9 3.5 0.00 0.00 0.00 95 1016.4
20260906122122 75 78 1.7 1.7 0.00 0.00 0.00 95 1016.4
20260906121618 75 97 2.6 3.5 0.00 0.00 0.00 95 1016.3
20260906121114 75 81 1.7 3.5 0.00 0.00 0.00 95 1016.2
20260906120610 75 88 2.6 3.5 0.00 0.00 0.00 95 1016.0
20260906120107 75 85 1.7 2.6 0.00 0.00 0.00 95 1015.8
20260906115606 75 96 1.7 2.6 0.00 0.00 0.00 95 1015.8
20260906115101 75 84 3.5 6.1 0.00 0.00 0.00 95 1015.8
20260906114556 75 76 0.9 3.5 0.00 0.00 0.00 95 1015.9
20260906114051 75 96 1.7 2.6 0.00 0.00 0.00 95 1015.8
20260906113550 75 110 2.6 5.2 0.00 0.00 0.00 95 1015.9
20260906113046 75 106 0.9 6.1 0.00 0.00 0.00 95 1015.9
20260906112540 75 87 1.7 2.6 0.00 0.00 0.00 95 1015.8
20260906112037 75 62 2.6 3.5 0.00 0.00 0.00 95 1016.0
20260906111536 75 93 1.7 5.2 0.00 0.00 0.00 95 1015.9
20260906111032 76 76 0.9 3.5 0.00 0.00 0.00 95 1016.1
20260906110531 76 106 1.7 5.2 0.00 0.00 0.00 95 1015.5
20260906110030 76 96 0.9 2.6 0.00 0.00 0.00 95 1015.5
20260906105525 76 87 0.9 6.1 0.00 0.00 0.00 95 1015.4
20260906105022 76 92 5.2 6.1 0.00 0.00 0.00 95 1015.8
20260906104520 76 96 2.6 5.2 0.00 0.00 0.00 95 1015.6
20260906104015 76 87 2.6 6.1 0.00 0.00 0.00 95 1015.5
20260906103513 76 94 4.3 5.2 0.00 0.00 0.00 95 1015.5
20260906103009 76 98 1.7 5.2 0.00 0.00 0.00 95 1015.4
20260906102508 76 79 3.5 5.2 0.00 0.00 0.00 95 1015.6
20260906102003 76 68 2.6 6.1 0.00 0.00 0.00 95 1015.7
20260906101457 76 90 0.9 3.5 0.00 0.00 0.00 95 1015.8
20260906100952 76 96 2.6 7.0 0.00 0.00 0.00 95 1015.5
20260906100447 77 87 3.5 5.2 0.00 0.00 0.00 95 1015.7
20260906095942 77 87 2.6 6.1 0.00 0.00 0.00 95 1015.6
20260906095438 77 116 3.5 3.5 0.00 0.00 0.00 95 1015.6
20260906094932 77 72 4.3 6.1 0.00 0.00 0.00 95 1015.3
20260906094426 77 85 2.6 5.2 0.00 0.00 0.00 95 1015.4
20260906093923 77 90 3.5 7.0 0.00 0.00 0.00 95 1015.3
20260906093419 77 90 1.7 6.1 0.00 0.00 0.00 95 1015.4
20260906092918 77 93 2.6 3.5 0.00 0.00 0.00 95 1015.4
20260906092413 77 57 3.5 7.0 0.00 0.00 0.00 95 1015.1
20260906091909 77 95 4.3 6.1 0.00 0.00 0.00 95 1015.1
20260906091404 77 102 4.3 6.1 0.00 0.00 0.00 95 1015.0
20260906090901 76 86 2.6 5.2 0.00 0.00 0.00 95 1014.9
20260906090400 76 88 2.6 6.1 0.00 0.00 0.00 95 1014.9
20260906085900 76 99 3.5 6.1 0.00 0.00 0.00 95 1014.9
20260906085354 76 66 0.9 6.1 0.00 0.00 0.00 95 1014.8
20260906084849 76 72 0.0 7.8 0.00 0.00 0.00 95 1014.7
20260906084348 77 62 0.9 5.2 0.00 0.00 0.00 95 1014.8
20260906083837 77 84 2.6 3.5 0.00 0.00 0.00 95 1014.8
20260906083333 77 79 2.6 3.5 0.00 0.00 0.00 95 1014.7
20260906082832 77 84 1.7 5.2 0.00 0.00 0.00 95 1014.8
20260906082327 77 92 2.6 3.5 0.00 0.00 0.00 95 1014.7
20260906081823 77 87 0.9 5.2 0.00 0.00 0.00 95 1015.0
20260906081319 77 76 2.6 3.5 0.00 0.00 0.00 95 1014.7
20260906080814 77 71 1.7 5.2 0.00 0.00 0.00 95 1014.7
20260906080310 77 89 1.7 5.2 0.00 0.00 0.00 95 1014.6
20260906075805 77 80 1.7 2.6 0.00 0.00 0.00 95 1014.6
20260906075306 77 89 4.3 5.2 0.00 0.00 0.00 95 1014.5
20260906074800 77 88 3.5 6.1 0.00 0.00 0.00 95 1014.4
20260906074259 77 74 0.9 6.1 0.00 0.00 0.00 95 1014.4
20260906073759 77 81 3.5 3.5 0.00 0.00 0.00 95 1014.8
20260906073253 77 91 3.5 5.2 0.00 0.00 0.00 95 1014.8
20260906072750 77 88 1.7 5.2 0.00 0.00 0.00 95 1014.7
20260906072245 77 92 1.7 5.2 0.00 0.00 0.00 95 1014.8
20260906071741 77 64 1.7 3.5 0.00 0.00 0.00 95 1014.6
20260906071240 77 77 0.9 5.2 0.00 0.00 0.00 95 1014.9
20260906070737 77 79 2.6 2.6 0.00 0.00 0.00 95 1014.9
20260906070232 77 81 0.9 5.2 0.00 0.00 0.00 95 1014.8
20260906065732 78 72 0.0 2.6 0.00 0.00 0.00 95 1014.9
20260906065227 78 86 2.6 3.5 0.00 0.00 0.00 94 1015.0
20260906064722 78 77 1.7 2.6 0.00 0.00 0.00 94 1015.1
20260906064218 78 66 1.7 3.5 0.00 0.00 0.00 94 1015.3
20260906063713 78 80 1.7 3.5 0.00 0.00 0.00 94 1015.2
20260906063208 78 50 3.5 5.2 0.00 0.00 0.00 93 1015.2
20260906062704 78 86 2.6 3.5 0.00 0.00 0.00 93 1015.1
20260906062203 78 78 1.7 2.6 0.00 0.00 0.00 93 1015.2
20260906061659 78 71 0.9 2.6 0.00 0.00 0.00 93 1015.1
20260906061154 78 64 1.7 1.7 0.00 0.00 0.00 93 1015.3
20260906060651 78 62 1.7 2.6 0.00 0.00 0.00 93 1015.2
20260906060148 78 70 0.9 2.6 0.00 0.00 0.00 92 1015.1
20260906055643 78 73 2.6 2.6 0.00 0.00 0.00 92 1015.1
20260906055138 78 65 0.9 3.5 0.00 0.00 0.00 92 1015.3
20260906054633 78 65 0.9 0.9 0.00 0.00 0.00 92 1015.6
20260906054128 78 64 0.9 1.7 0.00 0.00 0.00 92 1015.0
20260906053625 78 67 0.0 0.9 0.00 0.00 0.00 92 1015.4
20260906053119 79 65 0.9 0.9 0.00 0.00 0.00 91 1015.3
20260906052615 79 65 0.9 1.7 0.00 0.00 0.00 91 1015.1
20260906052112 79 65 0.9 1.7 0.00 0.00 0.00 91 1015.3
20260906051608 79 66 0.9 1.7 0.00 0.00 0.00 91 1015.2
20260906051057 79 65 0.9 1.7 0.00 0.00 0.00 90 1015.0
20260906050557 79 65 0.0 1.7 0.00 0.00 0.00 90 1014.9
20260906050053 79 64 0.0 1.7 0.00 0.00 0.00 90 1015.1
20260906045551 79 64 0.9 1.7 0.00 0.00 0.00 90 1015.1
20260906045047 79 64 1.7 1.7 0.00 0.00 0.00 89 1015.0
20260906044542 80 64 0.0 1.7 0.00 0.00 0.00 89 1014.9
20260906044038 80 64 0.9 1.7 0.00 0.00 0.00 89 1014.8
20260906043534 80 63 0.9 1.7 0.00 0.00 0.00 89 1015.2
20260906043030 80 63 0.9 1.7 0.00 0.00 0.00 88 1014.8
20260906042528 80 64 0.9 1.7 0.00 0.00 0.00 88 1014.8
20260906042023 80 64 0.9 1.7 0.00 0.00 0.00 88 1014.6
20260906041520 80 65 0.9 2.6 0.00 0.00 0.00 88 1014.7
20260906041019 80 65 1.7 2.6 0.00 0.00 0.00 88 1015.0
20260906040515 80 65 1.7 2.6 0.00 0.00 0.00 87 1014.8
20260906040010 80 65 0.9 1.7 0.00 0.00 0.00 88 1014.8
20260906035505 80 65 1.7 1.7 0.00 0.00 0.00 87 1014.7
20260906035001 80 63 0.9 2.6 0.00 0.00 0.00 87 1014.7
20260906034500 80 66 0.9 2.6 0.00 0.00 0.00 87 1014.6
20260906033955 80 65 0.9 2.6 0.00 0.00 0.00 87 1014.6
20260906033450 81 67 0.9 1.7 0.00 0.00 0.00 87 1014.4
20260906032946 81 65 0.9 2.6 0.00 0.00 0.00 86 1014.3
20260906032442 81 65 1.7 1.7 0.00 0.00 0.00 86 1014.4
20260906031937 81 65 0.9 1.7 0.00 0.00 0.00 85 1014.3
20260906031432 81 63 0.0 1.7 0.00 0.00 0.00 85 1014.3
20260906030927 81 66 0.0 2.6 0.00 0.00 0.00 85 1014.3
20260906030422 82 67 0.0 2.6 0.00 0.00 0.00 85 1014.5
20260906025916 82 70 0.9 1.7 0.00 0.00 0.00 84 1014.0
20260906025411 82 58 1.7 2.6 0.00 0.00 0.00 84 1014.3
20260906024910 82 73 0.9 2.6 0.00 0.00 0.00 84 1014.1
20260906024409 82 64 1.7 2.6 0.00 0.00 0.00 83 1013.9
20260906023904 82 63 0.0 2.6 0.00 0.00 0.00 83 1013.6
20260906023400 82 64 1.7 2.6 0.00 0.00 0.00 83 1014.0
20260906022855 82 70 1.7 1.7 0.00 0.00 0.00 83 1013.7
20260906022350 82 70 0.9 2.6 0.00 0.00 0.00 82 1013.7
20260906021845 83 69 0.9 2.6 0.00 0.00 0.00 81 1013.5
20260906021344 83 65 0.9 2.6 0.00 0.00 0.00 79 1013.4
20260906020834 83 72 0.0 2.6 0.00 0.00 0.00 79 1013.5
20260906020333 83 75 0.0 0.9 0.00 0.00 0.00 78 1013.1
20260906015828 83 75 0.0 0.9 0.00 0.00 0.00 78 1013.4
20260906015326 84 75 0.0 0.0 0.00 0.00 0.00 77 1013.1
20260906014821 84 76 0.0 0.0 0.00 0.00 0.00 77 1013.1
20260906014316 84 76 0.0 0.9 0.00 0.00 0.00 77 1013.2
20260906013812 83 76 0.0 1.7 0.00 0.00 0.00 77 1013.1
20260906013307 83 76 0.0 0.0 0.00 0.00 0.00 78 1013.1
20260906012803 83 76 0.0 0.9 0.00 0.00 0.00 78 1013.0
20260906012258 83 76 0.0 0.0 0.00 0.00 0.00 78 1013.0
20260906011753 84 76 0.0 0.0 0.00 0.00 0.00 77 1012.8
20260906011252 84 76 0.0 0.0 0.00 0.00 0.00 77 1012.7
20260906010748 84 76 0.0 0.9 0.00 0.00 0.00 77 1012.9
20260906010244 85 76 0.0 0.0 0.00 0.00 0.00 76 1012.7
20260906005739 85 76 0.0 0.0 0.00 0.00 0.00 76 1012.7
20260906005237 85 77 0.0 0.0 0.00 0.00 0.00 75 1012.8
20260906004737 86 77 0.0 0.9 0.00 0.00 0.00 74 1012.7
20260906004227 87 77 0.0 0.9 0.00 0.00 0.00 70 1012.7
20260906003721 87 77 0.0 0.9 0.00 0.00 0.00 69 1012.6
20260906003217 87 77 0.0 0.9 0.00 0.00 0.00 69 1012.5
20260906002711 87 77 0.0 0.9 0.00 0.00 0.00 71 1012.8
20260906002206 88 77 0.0 0.0 0.00 0.00 0.00 70 1012.7
20260906001701 89 77 0.0 0.0 0.00 0.00 0.00 69 1012.8
20260906001201 89 77 0.0 0.0 0.00 0.00 0.00 69 1012.9
20260906000657 89 77 0.0 0.0 0.00 0.00 0.00 67 1012.8
20260906000152 90 77 0.0 0.0 0.00 0.00 0.00 66 1012.9
20260905235651 90 77 0.0 0.0 0.00 0.00 0.00 66 1013.2
20260905235146 90 77 0.0 0.9 0.00 0.00 0.00 65 1012.7
20260905234641 90 77 0.0 0.9 0.00 0.00 0.00 65 1012.9
20260905234137 91 76 0.0 1.7 0.00 0.00 0.00 64 1013.0
20260905233632 91 70 0.0 0.9 0.00 0.00 0.00 64 1013.0
20260905233126 91 67 0.0 0.9 0.00 0.00 0.00 63 1012.7
20260905232622 91 80 0.0 1.7 0.00 0.00 0.00 63 1012.8
20260905232118 92 65 0.0 1.7 0.00 0.00 0.00 61 1012.6
20260905231617 92 61 1.7 2.6 0.00 0.00 0.00 60 1012.8
20260905231113 92 67 0.0 2.6 0.00 0.00 0.00 61 1012.9
20260905230609 92 75 1.7 3.5 0.00 0.00 0.00 60 1012.8
20260905230106 92 69 0.9 2.6 0.00 0.00 0.00 59 1012.7
20260905225601 93 68 0.0 0.9 0.00 0.00 0.00 59 1012.8
20260905225055 93 50 0.9 3.5 0.00 0.00 0.00 57 1012.6
20260905224550 93 72 1.7 1.7 0.00 0.00 0.00 57 1012.8
20260905224049 93 77 0.0 0.9 0.00 0.00 0.00 57 1012.7
20260905223547 93 68 0.0 0.9 0.00 0.00 0.00 57 1012.8
20260905223043 93 75 0.9 2.6 0.00 0.00 0.00 57 1012.9
20260905222542 93 58 1.7 2.6 0.00 0.00 0.00 56 1012.7
20260905222037 93 94 0.9 3.5 0.00 0.00 0.00 57 1012.8
20260905221534 93 96 0.0 3.5 0.00 0.00 0.00 58 1012.8
20260905221030 94 122 0.9 2.6 0.00 0.00 0.00 57 1012.7
20260905220526 93 109 0.9 3.5 0.00 0.00 0.00 56 1012.7
20260905220022 94 57 3.5 5.2 0.00 0.00 0.00 56 1012.7
20260905215521 93 79 0.9 0.9 0.00 0.00 0.00 57 1012.9
20260905215017 93 86 1.7 5.2 0.00 0.00 0.00 56 1012.9
20260905214513 94 137 1.7 3.5 0.00 0.00 0.00 57 1012.9
20260905214008 93 121 1.7 3.5 0.00 0.00 0.00 58 1012.7
20260905213503 94 115 1.7 2.6 0.00 0.00 0.00 56 1012.9
20260905212958 94 79 0.9 1.7 0.00 0.00 0.00 57 1012.8
20260905212453 94 63 0.9 5.2 0.00 0.00 0.00 55 1013.0
20260905211952 94 58 0.9 3.5 0.00 0.00 0.00 57 1013.1
20260905211448 95 122 1.7 1.7 0.00 0.00 0.00 56 1012.8
20260905210944 94 122 0.9 2.6 0.00 0.00 0.00 57 1013.1
20260905210439 94 80 0.9 1.7 0.00 0.00 0.00 56 1012.9
20260905205938 95 80 0.0 1.7 0.00 0.00 0.00 56 1013.2
20260905205433 94 83 0.9 2.6 0.00 0.00 0.00 57 1013.1
20260905204932 95 71 0.0 2.6 0.00 0.00 0.00 55 1013.1
20260905204428 93 128 0.9 2.6 0.00 0.00 0.00 58 1013.5
20260905203927 93 70 0.9 1.7 0.00 0.00 0.00 59 1013.6
20260905203422 92 69 0.9 1.7 0.00 0.00 0.00 60 1013.4
20260905202918 91 68 0.0 0.9 0.00 0.00 0.00 63 1013.4
20260905202413 92 68 1.7 1.7 0.00 0.00 0.00 59 1013.7
20260905201909 92 67 0.0 0.9 0.00 0.00 0.00 61 1013.5
20260905201403 92 67 0.9 0.9 0.00 0.00 0.00 60 1013.8
20260905200858 92 58 0.0 1.7 0.00 0.00 0.00 60 1013.4
20260905200354 93 59 0.0 1.7 0.00 0.00 0.00 57 1013.9
20260905195851 93 54 0.0 0.9 0.00 0.00 0.00 59 1013.8
20260905195341 93 66 0.9 1.7 0.00 0.00 0.00 58 1014.0
20260905194837 93 60 0.0 2.6 0.00 0.00 0.00 59 1014.1
20260905194337 93 75 0.0 1.7 0.00 0.00 0.00 59 1014.1
20260905193836 93 56 0.9 1.7 0.00 0.00 0.00 60 1014.4
20260905193331 93 75 0.9 3.5 0.00 0.00 0.00 60 1013.9
20260905192827 93 11 1.7 5.2 0.00 0.00 0.00 58 1014.3
20260905192323 93 48 0.0 1.7 0.00 0.00 0.00 58 1014.1
20260905191821 93 65 0.9 1.7 0.00 0.00 0.00 57 1014.5
20260905191320 94 13 1.7 5.2 0.00 0.00 0.00 55 1014.4
20260905190819 94 57 1.7 2.6 0.00 0.00 0.00 55 1014.4
20260905190318 93 58 0.9 6.1 0.00 0.00 0.00 58 1014.6
20260905185817 94 64 1.7 2.6 0.00 0.00 0.00 56 1014.7
20260905185312 94 10 1.7 5.2 0.00 0.00 0.00 56 1014.7
20260905184807 96 70 1.7 3.5 0.00 0.00 0.00 55 1014.7
20260905184305 95 37 0.0 3.5 0.00 0.00 0.00 54 1014.9
20260905183759 96 27 1.7 2.6 0.00 0.00 0.00 52 1014.6
20260905183255 97 64 0.9 3.5 0.00 0.00 0.00 52 1014.9
20260905182754 96 75 1.7 3.5 0.00 0.00 0.00 50 1014.7
20260905182254 96 39 1.7 5.2 0.00 0.00 0.00 52 1014.8
20260905181749 95 57 0.0 2.6 0.00 0.00 0.00 56 1014.8
20260905181248 94 28 0.0 3.5 0.00 0.00 0.00 58 1015.0
20260905180743 95 310 3.5 3.5 0.00 0.00 0.00 55 1014.8
20260905180238 94 4 2.6 2.6 0.00 0.00 0.00 54 1014.8
20260905175732 95 12 2.6 6.1 0.00 0.00 0.00 54 1015.1
20260905175227 95 70 0.9 3.5 0.00 0.00 0.00 55 1015.0
20260905174722 95 19 3.5 3.5 0.00 0.00 0.00 56 1014.9
20260905174218 95 16 2.6 2.6 0.00 0.00 0.00 54 1014.9
20260905173708 95 328 3.5 6.1 0.00 0.00 0.00 53 1014.9
20260905173203 95 24 0.9 1.7 0.00 0.00 0.00 54 1014.9
20260905172703 96 45 0.9 1.7 0.00 0.00 0.00 53 1014.8
20260905172157 94 14 0.9 2.6 0.00 0.00 0.00 54 1014.8
20260905171653 94 5 0.9 3.5 0.00 0.00 0.00 55 1015.0
20260905171149 95 13 0.9 1.7 0.00 0.00 0.00 52 1014.9
20260905170647 95 342 2.6 3.5 0.00 0.00 0.00 52 1015.0
20260905170141 96 2 1.7 1.7 0.00 0.00 0.00 52 1015.0
20260905165641 96 19 1.7 3.5 0.00 0.00 0.00 52 1015.2
20260905165136 97 15 1.7 2.6 0.00 0.00 0.00 51 1015.0